Change the Weather History Date:

Thursday, August 22, 2013

  Actual Average (KBJC) Record (KBJC)
Temperature  
Mean Temperature 72 °F -  
Max Temperature 86 °F 83 °F 93 °F (1988)
Min Temperature 59 °F 58 °F 51 °F (1987)
Cooling Degree Days 8    
Growing Degree Days 22 (Base 50)    
Moisture  
Dew Point 56 °F    
Average Humidity 58    
Maximum Humidity 85    
Minimum Humidity 34    
Precipitation  
Precipitation 0.03 in - - ()
Sea Level Pressure  
Sea Level Pressure 30.23 in    
Wind  
Wind Speed 3 mph (SW)    
Max Wind Speed 10 mph    
Max Gust Speed -    
Visibility 9 miles    
Events Rain    
Averages and records for this station are not official NWS values.
T = Trace of Precipitation, MM = Missing Value Source: NWS Daily Summary

Daily Weather History Graph

Daily Weather History Graph

Search for Another Location

Airport or City:

Trip Planner

Search our weather history database for the weather conditions in past years. The results will help you decide how hot, cold, wet, or windy it might be!

Date:

Astronomy

Aug. 22, 2013 Rise Set
Actual Time 6:18 AM MDT 7:47 PM MDT
Civil Twilight 5:50 AM MDT 8:15 PM MDT
Nautical Twilight 5:16 AM MDT 8:49 PM MDT
Astronomical Twilight 4:39 AM MDT 9:25 PM MDT
Moon 8:32 PM MDT (8/22) 8:10 AM MDT (8/22)
Length of Visible Light 14h 25m
Length of Day
13h 28m
Waning Gibbous, 96% of the Moon is Illuminated
Aug 22
Waning Gibbous
Aug 28
Last Quarter
Sep 5
New
Sep 12
First Quarter
Sep 19
Full

Hourly Weather History & Observations

Time (MDT) Temp. Heat Index Dew Point Humidity Pressure Visibility Wind Dir Wind Speed Gust Speed Precip Events Conditions
12:13 AM 71.8 °F - 54.0 °F 53% 30.21 in 10.0 mi North 4.6 mph - N/A   Clear
12:33 AM 70.9 °F - 54.0 °F 55% 30.22 in 10.0 mi North 4.6 mph - N/A   Clear
12:53 AM 69.6 °F - 54.5 °F 59% 30.22 in 10.0 mi NNW 3.5 mph - N/A   Clear
1:13 AM 69.3 °F - 54.5 °F 59% 30.22 in 10.0 mi North 3.5 mph - N/A   Clear
1:33 AM 69.1 °F - 54.5 °F 60% 30.23 in 10.0 mi Calm Calm - N/A   Clear
1:53 AM 66.2 °F - 54.5 °F 66% 30.23 in 7.0 mi Calm Calm - N/A   Clear
2:13 AM 66.6 °F - 54.7 °F 66% 30.23 in 10.0 mi SW 4.6 mph - N/A   Clear
2:33 AM 64.6 °F - 54.9 °F 71% 30.24 in 10.0 mi South 4.6 mph - N/A   Clear
2:53 AM 64.8 °F - 55.4 °F 72% 30.25 in 7.0 mi SW 4.6 mph - N/A   Clear
3:13 AM 63.1 °F - 54.9 °F 74% 30.25 in 7.0 mi Calm Calm - N/A   Clear
3:33 AM 63.9 °F - 55.0 °F 73% 30.24 in 7.0 mi SSW 3.5 mph - N/A   Clear
3:53 AM 63.1 °F - 54.5 °F 73% 30.24 in 7.0 mi Calm Calm - N/A   Clear
4:13 AM 64.2 °F - 55.6 °F 73% 30.24 in 10.0 mi Calm Calm - N/A   Clear
4:33 AM 62.6 °F - 54.5 °F 75% 30.24 in 10.0 mi NW 3.5 mph - N/A   Clear
4:53 AM 61.7 °F - 54.5 °F 77% 30.24 in 10.0 mi Calm Calm - N/A   Clear
5:13 AM 62.6 °F - 56.1 °F 79% 30.25 in 10.0 mi Calm Calm - N/A   Clear
5:33 AM 61.0 °F - 55.4 °F 82% 30.25 in 10.0 mi Calm Calm - N/A   Clear
5:53 AM 61.7 °F - 55.6 °F 80% 30.25 in 7.0 mi Calm Calm - N/A   Clear
6:10 AM 59.9 °F - 55.4 °F 85% 30.25 in 7.0 mi Calm Calm - N/A   Clear
6:33 AM 61.0 °F - 55.8 °F 83% 30.26 in 10.0 mi Calm Calm - N/A   Clear
6:53 AM 62.6 °F - 56.3 °F 80% 30.27 in 7.0 mi Calm Calm - N/A   Clear
7:13 AM 65.3 °F - 56.7 °F 74% 30.27 in 7.0 mi Calm Calm - N/A   Clear
7:33 AM 69.3 °F - 56.5 °F 64% 30.28 in 10.0 mi Calm Calm - N/A   Clear
7:53 AM 70.2 °F - 55.8 °F 60% 30.28 in 5.0 mi Calm Calm - N/A   Haze
8:13 AM 73.0 °F - 55.2 °F 53% 30.29 in 10.0 mi Calm Calm - N/A   Clear
8:33 AM 72.5 °F - 55.9 °F 56% 30.29 in 7.0 mi Calm Calm - N/A   Clear
8:53 AM 72.9 °F - 56.3 °F 56% 30.29 in 7.0 mi Calm Calm - N/A   Clear
9:13 AM 75.4 °F - 56.1 °F 51% 30.29 in 10.0 mi Calm Calm - N/A   Clear
9:33 AM 75.2 °F - 55.4 °F 50% 30.29 in 10.0 mi Calm Calm - N/A   Scattered Clouds
9:53 AM 78.4 °F - 55.2 °F 45% 30.29 in 10.0 mi Calm Calm - N/A   Scattered Clouds
10:13 AM 79.2 °F - 55.4 °F 44% 30.28 in 10.0 mi SSW 4.6 mph - N/A   Scattered Clouds
10:33 AM 78.8 °F - 55.2 °F 44% 30.28 in 7.0 mi SW 3.5 mph - N/A   Clear
10:53 AM 82.8 °F 82.0 °F 55.4 °F 39% 30.27 in 10.0 mi South 5.8 mph - N/A   Clear
11:13 AM 83.5 °F 82.6 °F 55.8 °F 39% 30.26 in 10.0 mi SSE 3.5 mph - N/A   Clear
11:33 AM 84.4 °F 83.4 °F 56.5 °F 38% 30.26 in 10.0 mi SSE 5.8 mph - N/A   Clear
11:53 AM 83.1 °F 82.6 °F 57.2 °F 41% 30.25 in 10.0 mi SSE 4.6 mph - N/A   Clear
12:13 PM 83.7 °F 83.0 °F 57.2 °F 40% 30.24 in 10.0 mi SE 6.9 mph - N/A   Clear
12:33 PM 84.6 °F 84.0 °F 58.3 °F 41% 30.23 in 10.0 mi SSE 5.8 mph - N/A   Clear
12:53 PM 83.5 °F 83.1 °F 58.3 °F 42% 30.24 in 7.0 mi ESE 10.4 mph - N/A   Clear
1:13 PM 82.4 °F 82.2 °F 57.9 °F 43% 30.23 in 10.0 mi SE 4.6 mph - N/A   Clear
1:33 PM 81.9 °F 81.7 °F 57.6 °F 43% 30.23 in 10.0 mi SE 4.6 mph - N/A   Clear
1:53 PM 82.8 °F 82.5 °F 58.3 °F 43% 30.23 in 10.0 mi East 4.6 mph - N/A   Scattered Clouds
2:13 PM 82.0 °F 82.0 °F 58.3 °F 44% 30.23 in 10.0 mi Calm Calm - N/A   Mostly Cloudy
2:33 PM 81.5 °F 81.7 °F 58.8 °F 46% 30.22 in 10.0 mi North 3.5 mph - N/A   Mostly Cloudy
2:53 PM 83.3 °F 83.2 °F 59.0 °F 44% 30.22 in 10.0 mi North 3.5 mph - N/A Rain Light Rain
3:13 PM 83.5 °F 83.1 °F 58.5 °F 42% 30.21 in 10.0 mi North 4.6 mph - N/A   Scattered Clouds
3:33 PM 84.2 °F 83.7 °F 58.3 °F 41% 30.20 in 10.0 mi NW 9.2 mph - N/A   Clear
3:53 PM 86.2 °F 84.5 °F 55.0 °F 34% 30.19 in 10.0 mi NW 10.4 mph - N/A   Clear
4:13 PM 82.2 °F - 52.2 °F 35% 30.18 in 10.0 mi NW 5.8 mph - N/A   Clear
4:33 PM 80.8 °F 80.3 °F 53.1 °F 38% 30.18 in 10.0 mi NW 4.6 mph - N/A   Clear
4:53 PM 79.9 °F - 52.2 °F 38% 30.17 in 10.0 mi Calm Calm - N/A   Scattered Clouds
5:13 PM 78.1 °F - 56.7 °F 48% 30.19 in 10.0 mi Calm Calm - N/A Rain Light Rain
5:33 PM 76.3 °F - 58.1 °F 53% 30.19 in 10.0 mi Calm Calm - N/A Rain Light Rain
5:53 PM 76.5 °F - 57.4 °F 52% 30.17 in 10.0 mi East 5.8 mph - N/A Rain Light Rain
6:13 PM 73.9 °F - 59.2 °F 60% 30.18 in 10.0 mi WSW 3.5 mph - N/A   Scattered Clouds
6:33 PM 73.6 °F - 56.5 °F 55% 30.18 in 10.0 mi WSW 4.6 mph - N/A   Clear
6:53 PM 72.9 °F - 59.0 °F 62% 30.16 in 10.0 mi Calm Calm - N/A   Scattered Clouds
7:13 PM 71.4 °F - 58.1 °F 63% 30.16 in 10.0 mi West 4.6 mph - N/A Rain Light Rain
7:33 PM 71.6 °F - 57.2 °F 60% 30.17 in 7.0 mi Calm Calm - N/A   Clear
7:53 PM 71.8 °F - 56.1 °F 58% 30.18 in 10.0 mi Calm Calm - N/A   Clear
8:13 PM 71.6 °F - 55.6 °F 57% 30.19 in 7.0 mi South 4.6 mph - N/A   Mostly Cloudy
8:33 PM 71.6 °F - 56.3 °F 58% 30.20 in 10.0 mi SSE 4.6 mph - N/A   Overcast
8:53 PM 71.4 °F - 56.3 °F 59% 30.20 in 10.0 mi Calm Calm - N/A   Scattered Clouds
9:13 PM 70.3 °F - 55.9 °F 60% 30.19 in 10.0 mi Calm Calm - N/A   Clear
9:33 PM 69.4 °F - 56.7 °F 64% 30.19 in 10.0 mi Calm Calm - N/A   Clear
9:53 PM 68.4 °F - 57.4 °F 68% 30.21 in 10.0 mi Calm Calm - N/A   Clear
10:13 PM 68.7 °F - 58.1 °F 69% 30.23 in 10.0 mi Calm Calm - N/A   Scattered Clouds
10:33 PM 69.4 °F - 58.5 °F 68% 30.24 in 10.0 mi ESE 5.8 mph - N/A   Overcast
10:53 PM 70.3 °F - 58.6 °F 66% 30.25 in 7.0 mi North 6.9 mph - N/A   Overcast
11:13 PM 68.9 °F - 60.6 °F 75% 30.25 in 10.0 mi NE 3.5 mph - 0.02 in Rain Rain
11:33 PM 67.5 °F - 61.2 °F 80% 30.25 in 10.0 mi North 6.9 mph - 0.03 in Rain Light Rain
11:53 PM 67.5 °F - 60.8 °F 79% 30.24 in 10.0 mi North 8.1 mph - 0.03 in   Mostly Cloudy